Sisseton, SD

3:58 AM CST on November 24, 2017 (GMT -0600)
Sisseton

Weather History for K8D3 - November, 2013

Change the Weather History Date:

Friday, November 1, 2013

  Actual Average Record
Temperature  
Mean Temperature 41 °F 39 °F  
Max Temperature 47 °F 49 °F 74 °F (1990)
Min Temperature 34 °F 29 °F 4 °F (1966)
Degree Days  
Heating Degree Days 24 26  
Month to date heating degree days 24 26  
Since 1 July heating degree days 802 853  
Cooling Degree Days 0 0  
Month to date cooling degree days 0 0  
Year to date cooling degree days 625 527  
Moisture  
Dew Point 36 °F    
Average Humidity 77    
Maximum Humidity 89    
Minimum Humidity 65    
Precipitation  
Precipitation 0.01 in 0.03 in 1.02 in (1992)
Month to date precipitation 0.01 0.03  
Year to date precipitation 27.37 21.39  
Snow  
Snow 0.00 in - - ()
Month to date snowfall 0.0  
Since 1 July snowfall 1.0  
Snow Depth 0.00 in    
Sea Level Pressure  
Sea Level Pressure 29.73 in    
Wind  
Wind Speed 13 mph (NW)    
Max Wind Speed 22 mph    
Max Gust Speed 28 mph    
T = Trace of Precipitation, MM = Missing Value Source: NWS Daily Summary

Daily Weather History Graph

Daily Weather History Graph

Search for Another Location

Airport or City:

Trip Planner

Search our weather history database for the weather conditions in past years. The results will help you decide how hot, cold, wet, or windy it might be!

Date:

Astronomy

Nov. 01, 2013 Rise Set
Actual Time 8:08 AM CDT 6:14 PM CDT
Civil Twilight 7:37 AM CDT 6:45 PM CDT
Nautical Twilight 7:02 AM CDT 7:20 PM CDT
Astronomical Twilight 6:27 AM CDT 7:54 PM CDT
Moon 5:56 AM CDT (11/1) 5:11 PM CDT (11/1)
Length of Visible Light 11h 08m
Length of Day
10h 06m
Waning Crescent, 4% of the Moon is Illuminated
Nov 1
Waning Crescent
Nov 3
New
Nov 9
First Quarter
Nov 17
Full
Nov 25
Last Quarter

Hourly Weather History & Observations

Time (CDT) Temp. Windchill Dew Point Humidity Pressure Visibility Wind Dir Wind Speed Gust Speed Precip Events Conditions
12:56 AM 39.0 °F 32.3 °F 33.1 °F 79% 29.53 in - NNW 10.4 mph - N/A   Unknown
1:56 AM 39.0 °F 32.3 °F 33.1 °F 79% 29.55 in - NNW 10.4 mph - N/A   Unknown
2:56 AM 36.0 °F 29.0 °F 32.0 °F 86% 29.56 in - NW 9.2 mph - N/A   Unknown
3:56 AM 37.0 °F 31.0 °F 33.1 °F 86% 29.57 in - NW 8.1 mph - N/A   Unknown
4:56 AM 36.0 °F 31.1 °F 32.0 °F 86% 29.59 in - WNW 5.8 mph - N/A   Unknown
5:56 AM 37.0 °F 31.6 °F 33.1 °F 86% 29.60 in - West 6.9 mph - N/A   Unknown
6:56 AM 37.0 °F 32.4 °F 33.1 °F 86% 29.61 in - WNW 5.8 mph - N/A   Unknown
7:56 AM 37.9 °F 30.9 °F 32.0 °F 79% 29.62 in - NW 10.4 mph - N/A   Unknown
8:56 AM 39.9 °F 32.5 °F 34.0 °F 79% 29.64 in - NW 12.7 mph - N/A   Unknown
9:56 AM 44.1 °F 36.5 °F 35.1 °F 71% 29.65 in - NW 17.3 mph 26.5 mph N/A   Unknown
10:56 AM 46.0 °F 39.0 °F 36.0 °F 68% 29.65 in - NW 17.3 mph 26.5 mph N/A   Unknown
11:56 AM 45.0 °F 37.1 °F 37.0 °F 74% 29.68 in - NNW 19.6 mph 25.3 mph N/A   Unknown
12:56 PM 45.0 °F 38.5 °F 37.0 °F 74% 29.70 in - NW 13.8 mph - N/A   Unknown
1:56 PM 44.1 °F 36.5 °F 37.9 °F 79% 29.71 in - NNW 17.3 mph 25.3 mph N/A   Unknown
2:56 PM 43.0 °F 35.1 °F 39.0 °F 86% 29.74 in - NNW 17.3 mph - N/A   Unknown
3:56 PM 43.0 °F 36.0 °F 39.9 °F 89% 29.78 in - NNW 13.8 mph - N/A   Unknown
4:56 PM 45.0 °F 38.5 °F 39.9 °F 82% 29.81 in - NNW 13.8 mph - N/A   Unknown
5:56 PM 43.0 °F 36.0 °F 39.9 °F 89% 29.84 in - NNW 13.8 mph - 0.01 in   Unknown
6:56 PM 44.1 °F 37.4 °F 39.0 °F 82% 29.87 in - NNW 13.8 mph 23.0 mph N/A   Unknown
7:56 PM 43.0 °F 35.7 °F 37.0 °F 80% 29.90 in - NNW 15.0 mph - N/A   Unknown
8:56 PM 42.1 °F 33.9 °F 37.9 °F 85% 29.92 in - NNW 17.3 mph 26.5 mph N/A   Unknown
9:56 PM 42.1 °F 34.2 °F 37.0 °F 82% 29.94 in - NNW 16.1 mph 23.0 mph N/A   Unknown
10:56 PM 41.0 °F 33.5 °F 36.0 °F 82% 29.96 in - NNW 13.8 mph - N/A   Unknown
11:56 PM 39.0 °F 32.3 °F 34.0 °F 82% 29.98 in - NNW 10.4 mph - N/A   Unknown